"Pseudo-MPEC" for P113t4h

Created 2020 Aug 15 10:07:41 UT using Find_Orb

Click here for an explanation of pseudo-MPECs

 
 Astrometry: 
     P113t4h  C2020 08 01BP(YX#Lh+64*gX\\8[38Op8liL8fG/o)BM-np8_*BLb$/_DgwN]iF52
     P113t4h  C2020 08 01tLp284Z!)=C1J8[bwe_#McAstrometryf'HeHy9+Cg19#M4%1QvVF52
     P113t4h  C2020 08 01nWrEBWIIu5*wRwm7t[H35%:#*K.aGdU$]Un$Iim-gH_;vlPxYe$sF52
     P113t4h  C2020 08 01BbEQIFoYK,4%Ul)D_6e-P]#OS%.s](redacted;;E'FIMp\RJ2W;F52
     P113t4h  C2020 08 01VUQu=[Y@bbsAKF$-b#4b;XH5fZF\OVlZR/eO$'ERI#_eZM'aC:WkF51
     P113t4h  C2020 08 01OD%OZT,L48[*Wd.^g-7jdP/EX6`!P=FYclick;%/vhere3o!a^,nF51
     P113t4h  C2020 08 01Cm3fxv1V3K1=iWw*6`ZI/]Jpu0hw%DA'8.Gj+3Fr^WiMh@2$l'iOF51
     P113t4h  C2020 08 01Q9Jb'HgLCH+o.j\.bA?RH-rZeSMlBw6M9=OZiL(aWRIH4Wd/vpX]F51
     P113t4h 1C2020 08 02C8HvenrBl.I+RfIfor$H15TZ7ilRhL0oINEhC0i3N,enVi=AYqUp658
     P113t4h 1C2020 08 02:GLmjS#pHDnIAf3dlG9S2-cV$*5v__jaf]Q?;GguE5DA!2+nYx!k658
     P113t4h 1C2020 08 02,d!dn6:-P+nphE5]FVYllW3mi;H=n#ogN`(6jgexplanation*`/658
     P113t4h 1C2020 08 02*um*+vw7/E'(`)yWQV7!wf;YV+F:kVD@#OK)%#ti!K_JsjZekWQ,658
     P113t4h 1C2020 08 02kak7!\GVJ)\-.9(w;]WvL+g`p2!?/b0cGcWl9h!RJRG-/%^[0Kv]658

Station data:
(658) Dominion Astrophysical Observatory  (N48.519987 W123.417000)
   Canada/BritColumbia. 1.82-m Plaskett reflector.
(F51) Pan-STARRS 1, Haleakala  (N20.707235 W156.255910)  US/Hawaii.
   Observers N. Primak, A. Schultz, S. Watters, J. Thiel, T. Goggia. Measurer
   PS1 Science Consortium. 1.8-m Ritchey-Chrétien + CCD.
(F52) Pan-STARRS 2, Haleakala  (N20.707384 W156.255910)  US/Hawaii. 1.8-m
   Ritchey-Chrétien + CCD.

Orbital elements:  P113t4h
   Perihelion 2020 Sep 19.039624 +/- 1.16 TT =  0:57:03 (JD 2459111.539624)
Epoch 2020 Aug  2.0 TT = JDT 2459063.5   Earth MOID: 0.0217   Me: 0.0354
M 346.42026835 +/- 6                (J2000 ecliptic)          AutoNEOCP
n   0.28267772 +/- 0.132            Peri.  302.10323 +/- 4.3
a   2.29936714 +/- 0.716            Node   137.69805 +/- 0.31
e   0.8797653 +/- 0.0318            Incl.   78.00411 +/- 3.9
P   3.49                   H 22.9   G  0.15   U 11.4  
q 0.27646369 +/- 0.0174    Q 4.32227060 +/- 1.84
From 13 observations 2020 Aug. 1-2 (20.1 hr); mean residual 0".16
Residuals in arcseconds: 
200801 F52  .10-  .09-    200801 F51  .01-  .05+    200802 658  .17-  .35-    
200801 F52  .04-  .14+    200801 F51  .09-  .03+    200802 658  .03+  .24+    
200801 F52  .07-  .03-    200801 F51  .00   .06+    200802 658  .25+  .17+    
200801 F52  .35+  .05-    200802 658  .03+  .25+    
200801 F51  .05-  .09-    200802 658  .13-  .32-    

Ephemerides (geocentric):
Date (UTC) HH   RA              Dec         delta   r     elong  mag " sig PA
---- -- -- --  -------------   -----------  ------ ------ -----  --- ---- ---
2020 08 15 10  10 56 30.030   -16 35 18.15  .14770 .89720  35.8 25??  539 173
2020 08 15 11  10 56 31.340   -16 38 53.11  .14876 .89644  35.9 25??  534 173
2020 08 15 12  10 56 32.626   -16 42 24.86  .14983 .89567  35.9 25??  530 173
2020 08 15 13  10 56 33.888   -16 45 53.48  .15089 .89490  35.9 25??  526 173
2020 08 15 14  10 56 35.127   -16 49 19.02  .15196 .89413  35.9 25??  521 173
2020 08 15 15  10 56 36.343   -16 52 41.56  .15302 .89336  35.9 25??  517 173
2020 08 15 16  10 56 37.536   -16 56 01.14  .15409 .89259  36.0 25??  513 173
2020 08 15 17  10 56 38.707   -16 59 17.83  .15515 .89182  36.0 25??  509 173
2020 08 15 18  10 56 39.856   -17 02 31.69  .15622 .89105  36.0 25??  505 173
2020 08 15 19  10 56 40.984   -17 05 42.77  .15728 .89028  36.0 25??  501 173
2020 08 15 20  10 56 42.091   -17 08 51.12  .15835 .88951  36.0 25??  497 173
2020 08 15 21  10 56 43.177   -17 11 56.81  .15941 .88874  36.0 25??  493 173
2020 08 15 22  10 56 44.243   -17 14 59.87  .16048 .88797  36.1 25??  489 173
2020 08 15 23  10 56 45.289   -17 18 00.37  .16155 .88720  36.1 25??  486 173
2020 08 16 00  10 56 46.315   -17 20 58.34  .16261 .88643  36.1 25??  482 173
2020 08 16 01  10 56 47.322   -17 23 53.84  .16368 .88565  36.1 25??  479 173
2020 08 16 02  10 56 48.310   -17 26 46.91  .16475 .88488  36.1 25??  475 173
2020 08 16 03  10 56 49.279   -17 29 37.60  .16582 .88411  36.1 25??  472 173
2020 08 16 04  10 56 50.230   -17 32 25.95  .16688 .88334  36.1 25??  468 173
2020 08 16 05  10 56 51.163   -17 35 12.00  .16795 .88256  36.1 25??  465 173
2020 08 16 06  10 56 52.078   -17 37 55.80  .16902 .88179  36.2 25??  462 173
2020 08 16 07  10 56 52.975   -17 40 37.39  .17009 .88102  36.2 25??  458 173
2020 08 16 08  10 56 53.855   -17 43 16.80  .17116 .88024  36.2 25??  455 173
2020 08 16 09  10 56 54.718   -17 45 54.08  .17222 .87947  36.2 25??  452 173
2020 08 16 10  10 56 55.565   -17 48 29.26  .17329 .87869  36.2 25??  449 173
2020 08 16 11  10 56 56.395   -17 51 02.39  .17436 .87792  36.2 25??  446 173
2020 08 16 12  10 56 57.209   -17 53 33.49  .17543 .87715  36.2 25??  443 173
2020 08 16 13  10 56 58.006   -17 56 02.60  .17650 .87637  36.2 25??  440 173
2020 08 16 14  10 56 58.788   -17 58 29.75  .17757 .87559  36.2 25??  437 173
2020 08 16 15  10 56 59.555   -18 00 54.99  .17864 .87482  36.2 25??  434 173
2020 08 16 16  10 57 00.306   -18 03 18.34  .17971 .87404  36.2 25??  432 173
2020 08 16 17  10 57 01.042   -18 05 39.83  .18078 .87327  36.2 25??  429 173
2020 08 16 18  10 57 01.764   -18 07 59.49  .18185 .87249  36.2 25??  426 173
2020 08 16 19  10 57 02.470   -18 10 17.36  .18292 .87171  36.2 25??  423 173
2020 08 16 20  10 57 03.163   -18 12 33.47  .18399 .87094  36.2 25??  421 173
2020 08 16 21  10 57 03.841   -18 14 47.84  .18506 .87016  36.2 25??  418 173
2020 08 16 22  10 57 04.505   -18 17 00.50  .18613 .86938  36.3 25??  416 173
2020 08 16 23  10 57 05.155   -18 19 11.49  .18720 .86860  36.3 25??  413 173
2020 08 17 00  10 57 05.792   -18 21 20.82  .18827 .86783  36.3 25??  410 173
2020 08 17 01  10 57 06.415   -18 23 28.53  .18934 .86705  36.3 25??  408 173
2020 08 17 02  10 57 07.025   -18 25 34.63  .19042 .86627  36.3 25??  406 173
2020 08 17 03  10 57 07.621   -18 27 39.16  .19149 .86549  36.3 25??  403 173
2020 08 17 04  10 57 08.205   -18 29 42.14  .19256 .86471  36.3 25??  401 173
2020 08 17 05  10 57 08.776   -18 31 43.60  .19363 .86393  36.3 25??  399 173
2020 08 17 06  10 57 09.335   -18 33 43.55  .19470 .86315  36.3 25??  396 173
2020 08 17 07  10 57 09.881   -18 35 42.03  .19578 .86237  36.3 25??  394 173
2020 08 17 08  10 57 10.415   -18 37 39.05  .19685 .86159  36.3 25??  392 173
2020 08 17 09  10 57 10.936   -18 39 34.63  .19792 .86081  36.3 25??  390 173